Regional Weather Roundup
Issued by NWS

Home | Current Version | Previous Version | Text Only | Print | Product List | Glossary Off
Versions: 1 2 3 4 5 6 7 8 9 10 11 12 13 14 15 16 17 18 19 20 21 22 23 24 25 26 27 28 29 30 31 32 33 34 35 36 37 38 39 40 41 42 43 44 45 46 47 48 49 50

000
ASUS43 KLMK 221902
RWRKY
KENTUCKY REGIONAL WEATHER ROUNDUP
NATIONAL WEATHER SERVICE LOUISVILLE KY
300 PM EDT TUE APR 22 2014

NOTE "FAIR" INDICATES FEW OR NO CLOUDS BELOW 12,000 FEET
WITH NO SIGNIFICANT WEATHER AND/OR OBSTRUCTIONS TO VISIBILITY.

KYZ001>023-026-027-061>063-070>075-222000-
WESTERN AND SOUTH CENTRAL KENTUCKY

CITY           SKY/WX    TMP DP  RH WIND       PRES   REMARKS
PADUCAH        SUNNY     74  44  34 N17G23    29.93F
HENDERSON      SUNNY     70  46  43 NW10G18   29.92S
OWENSBORO      SUNNY     70  49  47 N14G24    29.91S
HOPKINSVILLE   MOSUNNY   73  57  56 NW15      29.89S
BOWLING GREEN  MOSUNNY   76  54  46 VRB7G20   29.86F
GLASGOW        NOT AVBL
$$

KYZ024-025-028>034-038-045-046-053-222000-
NORTH CENTRAL KENTUCKY

CITY           SKY/WX    TMP DP  RH WIND       PRES   REMARKS
LOUISVILLE/SDF MOSUNNY   74  48  39 NW13G20   29.85S
LOUISVILLE/LOU MOSUNNY   74  47  38 N8G20     29.85F
FORT KNOX      MOSUNNY   72  53  51 W16G22    29.85S
$$

KYZ035>037-039>044-047>052-055>060-089>105-222000-
NORTHEAST KENTUCKY

CITY           SKY/WX    TMP DP  RH WIND       PRES   REMARKS
LEXINGTON      PTSUNNY   71  54  54 NW17      29.83F
COVINGTON      SUNNY     68  39  34 W22       29.83
FRANKFORT      MOSUNNY   69  49  48 NW15G25   29.83S
$$

KYZ054-064>069-076>088-106>120-222000-
SOUTHEAST KENTUCKY

CITY           SKY/WX    TMP DP  RH WIND       PRES   REMARKS
JACKSON        PTSUNNY   72  54  53 W9        29.81F
LONDON         PTSUNNY   69  57  65 CALM      29.82F
SOMERSET       NOT AVBL
MIDDLESBORO    NOT AVBL
MONTICELLO     PTCLDY    73  60  63 W10       29.85F
$$




USA.gov is the U.S. government's official web portal to all federal, state and local government web resources and services.